Regional Weather Roundup
Issued by NWS

Home | Current Version | Previous Version | Text Only | Print | Product List | Glossary Off
Versions: 1 2 3 4 5 6 7 8 9 10 11 12 13 14 15 16 17 18 19 20 21 22 23 24 25 26 27 28 29 30 31 32 33 34 35 36 37 38 39 40 41 42 43 44 45 46 47 48 49 50

000
ASUS45 KSLC 132210
RWRUT

UTAH REGIONAL WEATHER ROUNDUP
NATIONAL WEATHER SERVICE SALT LAKE CITY UT
400 PM MDT SUN JUL 13 2014

UTZ001>011-023>025-132300-

NORTHERN UTAH

CITY           SKY/WX    TMP DP  RH WIND       PRES   REMARKS
HILL AFB       SUNNY     94  44  17 VRB3      30.18F HX  90
LOGAN          NOT AVBL
OGDEN          NOT AVBL
PROVO AIRPORT  NOT AVBL
SALT LAKE CITY MOSUNNY   96  45  17 VRB5      30.12F HX  92
VERNAL         NOT AVBL
WENDOVER       NOT AVBL
HEBER CITY     SUNNY     95  39  14 N7        30.22F HX  91

$$

UTZ012>022-026-027-132300-

SOUTHERN UTAH

CITY           SKY/WX    TMP DP  RH WIND       PRES   REMARKS
CEDAR CITY     NOT AVBL
MILFORD        NOT AVBL
MOAB/CYNLANDS  NOT AVBL
PRICE          NOT AVBL
ST GEORGE      NOT AVBL

$$

REGIONAL REPORTS     COLORADO/ARIZONA

CITY           SKY/WX    TMP DP  RH WIND       PRES   REMARKS
CRAIG, CO      MOSUNNY   84  43  23 W12       30.27F
GRAND JUNCTION   N/A     95  44  17 VRB7      30.11F HX  91
RIFLE          MOSUNNY   90  44  20 N6        30.17F
MONTROSE       MOSUNNY   93  43  17 W13       30.20F
CORTEZ         MOSUNNY   91  47  21 N12       30.20F
PAGE, AZ       SUNNY    104  45  13 NE9       30.04F HX 100
GRAND CANYON   PTSUNNY   89  43  20 MISG      30.27F
KINGMAN        PTSUNNY   97  44  16 VRB3      30.01F HX  93
FLAGSTAFF      MOSUNNY   82  45  27 VRB3      30.31F

$$

REGIONAL REPORTS    NEVADA/IDAHO/WYOMING

CITY           SKY/WX    TMP DP  RH WIND       PRES   REMARKS
LAS VEGAS, NV  MOSUNNY  110  37   8 CALM      29.83F HX 103
ELY            NOT AVBL
ELKO           SUNNY     98  34  10 S6        30.16F HX  92
POCATELLO, ID  NOT AVBL
EVANSTON, WY   NOT AVBL
ROCK SPRINGS   NOT AVBL

$$



USA.gov is the U.S. government's official web portal to all federal, state and local government web resources and services.